Regional Weather Roundup
Issued by NWS

Home | Current Version | Previous Version | Graphics & Text | Print | Product List | Glossary On
Versions: 1 2 3 4 5 6 7 8 9 10 11 12 13 14 15 16 17 18 19 20 21 22 23 24 25 26 27 28 29 30 31 32 33 34 35 36 37 38 39 40 41 42 43 44 45 46 47 48 49 50
000
ASUS43 KBIS 242210
RWRND

NORTH DAKOTA REGIONAL WEATHER ROUNDUP
NATIONAL WEATHER SERVICE BISMARCK ND
500 PM CDT TUE APR 24 2018

NOTE: "FAIR" INDICATES FEW OR NO CLOUDS BELOW 12,000 FEET WITH NO
SIGNIFICANT WEATHER AND/OR OBSTRUCTIONS TO VISIBILITY.


NDZ001>003-009>011-017-242300-
NORTHWEST NORTH DAKOTA

CITY           SKY/WX    TMP DP  RH WIND       PRES   REMARKS
WILLISTON      SUNNY     62  26  25 SW14      30.36F
MINOT          SUNNY     60  16  18 NW3G17    30.35F
MINOT AFB      SUNNY     58  20  22 W7        30.34F
$$

NDZ018>021-031>035-040>046-242300-
SOUTHWEST NORTH DAKOTA

CITY           SKY/WX    TMP DP  RH WIND       PRES   REMARKS
BISMARCK       MOSUNNY   58  26  29 NW8       30.39F
DICKINSON      SUNNY     55  20  25 CALM      30.37F
GARRISON         N/A     58  22  24 NW9       30.37F
HETTINGER ARPT SUNNY     51  24  34 N7        30.43F
$$

NDZ004>008-012>016-024-026-027-054-242300-
NORTHEAST NORTH DAKOTA

CITY           SKY/WX    TMP DP  RH WIND       PRES   REMARKS
GRAND FORKS    FAIR      53  29  39 N20G28    30.35S
GRND FRKS AFB  FAIR      54  25  33 N17G25    30.35F
DEVILS LAKE    FAIR      53  26  35 N14       30.37S
$$

NDZ022-023-025-028>030-036>039-047>053-242300-
SOUTHEAST NORTH DAKOTA

CITY           SKY/WX    TMP DP  RH WIND       PRES   REMARKS
FARGO          FAIR      54  29  38 N23G32    30.33F
JAMESTOWN      SUNNY     56  27  32 N17G26    30.34F
$$





USA.gov is the U.S. government's official web portal to all federal, state and local government web resources and services.